Zurück zum Katalog

COSMOS 2499 DEB

AktivPO
NORAD 55723·DEBRIS·🇷🇺 Russia

Gestartet May 23, 2014 von Plesetsk Cosmodrome

Loading…

Nächste Überflüge (nächste 24 Stunden)

TLE

AktuellSource: Space-Track

Epoche: Sep 13, 2026, 15:12 UTC

1 55723U 14028AK  26256.63339250  .00001890  00000-0  76788-2 0  9995
2 55723  82.5819 221.6189 0191438 191.4810 168.1896 12.79731954170180

Verfolge COSMOS 2499 DEB in Echtzeit mit AllMySat

Download on the App Store